Location: Haulchin
(50.3172°N, 3.4360°E)
Time: 14:30:59
(UTC+00:00)

Cosmos 2074 Rocket - Pass Details

Date: 23 May 2024
Orbit: 966 x 986 km, 82.9° (Epoch: 19 June)

Event Time Altitude Azimuth Distance (km) Brightness Sun altitude
Exits shadow 02:48:45 - 188° (S) 3,394 6.3 -8.1°
Reaches altitude 10° 02:50:33 10° 188° (S) 2,714 5.9 -7.9°
Maximum altitude 02:56:47 89° 273° (W) 978 4.1 -7.2°
Drops below altitude 10° 03:03:02 10° 10° (N) 2,722 7.3 -6.5°
Sets 03:05:33 0° 10° (N) 3,671 8.0 -6.2°
